• în Republica Moldova
  • Lista ţărilor
  • Pe 7 zile
  • Temperatura apei
  • Hartă satelitară
  • Meteo pe hartă
  • Widget-uri
  • user-avatar
    Intrare

    Meteo pe oră la Djelfa

    Astăzi, 25 Mai, Joi

    Timp Temperatura Precipitaţii Vânt Presiune Umiditate
    00:00 +24°C° 0 mm 1 m/s 666 mmHg 42%
    01:00 +23°C° 0,2 mm 2 m/s 666 mmHg 44%
    02:00 +23°C° 0,2 mm 2 m/s 666 mmHg 46%
    03:00 +21°C° 0,2 mm 2 m/s 666 mmHg 47%
    04:00 +21°C° 0,2 mm 2 m/s 666 mmHg 47%
    05:00 +21°C° 0,2 mm 2 m/s 666 mmHg 48%
    06:00 +23°C° 0 mm 2 m/s 666 mmHg 46%
    07:00 +24°C° 0,3 mm 2 m/s 667 mmHg 42%
    08:00 +26°C° 0,3 mm 3 m/s 667 mmHg 37%
    09:00 +27°C° 0,3 mm 4 m/s 667 mmHg 32%
    10:00 +28°C° 0 mm 4 m/s 667 mmHg 30%
    11:00 +29°C° 0 mm 3 m/s 667 mmHg 28%
    12:00 +30°C° 0 mm 3 m/s 667 mmHg 25%
    13:00 +30°C° 0 mm 3 m/s 667 mmHg 24%
    14:00 +31°C° 0 mm 3 m/s 667 mmHg 23%
    15:00 +31°C° 0 mm 2 m/s 666 mmHg 23%
    16:00 +30°C° 0 mm 3 m/s 666 mmHg 24%
    17:00 +30°C° 0 mm 3 m/s 666 mmHg 25%
    18:00 +29°C° 0 mm 4 m/s 666 mmHg 26%
    19:00 +28°C° 0,1 mm 4 m/s 666 mmHg 30%
    20:00 +27°C° 0,1 mm 4 m/s 666 mmHg 34%
    21:00 +26°C° 0,1 mm 4 m/s 666 mmHg 38%
    22:00 +25°C° 0,1 mm 4 m/s 666 mmHg 43%
    23:00 +23°C° 0,1 mm 4 m/s 666 mmHg 47%

    Mâine, 26 Mai, Vineri

    Timp Temperatura Precipitaţii Vânt Presiune Umiditate
    00:00 +22°C° 0,1 mm 5 m/s 666 mmHg 51%
    01:00 +22°C° 0,1 mm 5 m/s 666 mmHg 53%
    02:00 +22°C° 0,1 mm 5 m/s 665 mmHg 54%
    03:00 +21°C° 0,1 mm 5 m/s 665 mmHg 55%
    04:00 +21°C° 0 mm 5 m/s 665 mmHg 53%
    05:00 +22°C° 0 mm 5 m/s 665 mmHg 51%
    06:00 +22°C° 0 mm 5 m/s 665 mmHg 50%
    07:00 +25°C° 0 mm 5 m/s 666 mmHg 42%
    08:00 +26°C° 0 mm 5 m/s 666 mmHg 35%
    09:00 +28°C° 0 mm 5 m/s 666 mmHg 28%
    10:00 +30°C° 0 mm 5 m/s 666 mmHg 25%
    11:00 +32°C° 0 mm 5 m/s 666 mmHg 23%
    12:00 +33°C° 0 mm 4 m/s 666 mmHg 20%
    13:00 +33°C° 0 mm 4 m/s 666 mmHg 19%
    14:00 +34°C° 0 mm 4 m/s 665 mmHg 18%
    15:00 +34°C° 0 mm 4 m/s 665 mmHg 18%
    16:00 +34°C° 0 mm 4 m/s 665 mmHg 18%
    17:00 +33°C° 0 mm 4 m/s 665 mmHg 19%
    18:00 +33°C° 0 mm 4 m/s 664 mmHg 19%
    19:00 +30°C° 0,2 mm 4 m/s 665 mmHg 25%
    20:00 +28°C° 0,2 mm 4 m/s 665 mmHg 30%
    21:00 +27°C° 0,2 mm 4 m/s 665 mmHg 36%
    22:00 +26°C° 0 mm 4 m/s 665 mmHg 37%
    23:00 +25°C° 0 mm 4 m/s 665 mmHg 39%

    Poimâine, 27 Mai, Sâmbătă

    Timp Temperatura Precipitaţii Vânt Presiune Umiditate
    00:00 +25°C° 0 mm 5 m/s 665 mmHg 41%
    01:00 +23°C° 0 mm 5 m/s 665 mmHg 43%
    02:00 +23°C° 0 mm 5 m/s 665 mmHg 46%
    03:00 +22°C° 0 mm 5 m/s 665 mmHg 48%
    04:00 +22°C° 0 mm 5 m/s 665 mmHg 47%
    05:00 +22°C° 0 mm 6 m/s 665 mmHg 46%
    06:00 +23°C° 0 mm 7 m/s 665 mmHg 45%
    07:00 +24°C° 0 mm 7 m/s 666 mmHg 40%
    08:00 +27°C° 0 mm 7 m/s 666 mmHg 35%
    09:00 +29°C° 0 mm 7 m/s 667 mmHg 30%
    10:00 +30°C° 0 mm 7 m/s 667 mmHg 26%
    11:00 +32°C° 0 mm 6 m/s 667 mmHg 23%
    12:00 +33°C° 0 mm 6 m/s 667 mmHg 19%
    13:00 +34°C° 0 mm 6 m/s 667 mmHg 18%
    14:00 +34°C° 0 mm 5 m/s 666 mmHg 17%
    15:00 +35°C° 0 mm 5 m/s 666 mmHg 15%
    16:00 +34°C° 0 mm 5 m/s 666 mmHg 16%
    17:00 +33°C° 0 mm 5 m/s 666 mmHg 16%
    18:00 +33°C° 0 mm 5 m/s 666 mmHg 17%
    19:00 +32°C° 0 mm 5 m/s 666 mmHg 20%
    20:00 +29°C° 0 mm 6 m/s 666 mmHg 24%
    21:00 +28°C° 0 mm 7 m/s 666 mmHg 27%
    22:00 +27°C° 0 mm 7 m/s 666 mmHg 30%
    23:00 +26°C° 0 mm 7 m/s 666 mmHg 32%

    28 Mai, Duminică

    Timp Temperatura Precipitaţii Vânt Presiune Umiditate
    00:00 +24°C° 0 mm 6 m/s 666 mmHg 35%
    01:00 +24°C° 0 mm 6 m/s 666 mmHg 36%
    02:00 +23°C° 0 mm 6 m/s 666 mmHg 37%
    03:00 +23°C° 0 mm 5 m/s 666 mmHg 39%
    04:00 +23°C° 0 mm 5 m/s 666 mmHg 40%
    05:00 +22°C° 0 mm 5 m/s 666 mmHg 41%
    06:00 +22°C° 0 mm 5 m/s 666 mmHg 41%
    07:00 +25°C° 0 mm 5 m/s 667 mmHg 37%
    08:00 +27°C° 0 mm 6 m/s 667 mmHg 33%
    09:00 +29°C° 0 mm 7 m/s 668 mmHg 29%
    10:00 +30°C° 0 mm 6 m/s 668 mmHg 27%
    11:00 +32°C° 0 mm 6 m/s 668 mmHg 25%
    12:00 +33°C° 0 mm 6 m/s 668 mmHg 22%
    13:00 +33°C° 0 mm 6 m/s 667 mmHg 22%
    14:00 +33°C° 0 mm 6 m/s 667 mmHg 21%
    15:00 +34°C° 0 mm 6 m/s 667 mmHg 20%
    16:00 +33°C° 0 mm 6 m/s 666 mmHg 22%
    17:00 +32°C° 0 mm 6 m/s 666 mmHg 23%
    18:00 +30°C° 0 mm 6 m/s 666 mmHg 24%
    19:00 +29°C° 0 mm 6 m/s 666 mmHg 27%
    20:00 +28°C° 0 mm 6 m/s 666 mmHg 29%
    21:00 +27°C° 0 mm 6 m/s 666 mmHg 32%
    22:00 +26°C° 0 mm 5 m/s 666 mmHg 34%
    23:00 +25°C° 0 mm 5 m/s 666 mmHg 37%

    29 Mai, Luni

    Timp Temperatura Precipitaţii Vânt Presiune Umiditate
    00:00 +25°C° 0 mm 4 m/s 666 mmHg 39%
    01:00 +23°C° 0 mm 4 m/s 665 mmHg 41%
    02:00 +23°C° 0 mm 5 m/s 665 mmHg 42%
    03:00 +22°C° 0 mm 5 m/s 665 mmHg 44%
    04:00 +22°C° 0 mm 5 m/s 665 mmHg 45%
    05:00 +21°C° 0 mm 5 m/s 665 mmHg 46%
    06:00 +21°C° 0 mm 4 m/s 665 mmHg 48%
    07:00 +22°C° 0 mm 5 m/s 665 mmHg 43%
    08:00 +23°C° 0 mm 5 m/s 666 mmHg 39%
    09:00 +26°C° 0 mm 5 m/s 666 mmHg 35%
    10:00 +27°C° 0 mm 5 m/s 666 mmHg 32%
    11:00 +28°C° 0 mm 4 m/s 666 mmHg 29%
    12:00 +29°C° 0 mm 4 m/s 666 mmHg 26%
    13:00 +29°C° 0,1 mm 5 m/s 666 mmHg 25%
    14:00 +29°C° 0,1 mm 5 m/s 665 mmHg 25%
    15:00 +29°C° 0,1 mm 5 m/s 665 mmHg 24%
    16:00 +29°C° 0,2 mm 5 m/s 665 mmHg 26%
    17:00 +28°C° 0,2 mm 6 m/s 665 mmHg 28%
    18:00 +27°C° 0,2 mm 6 m/s 664 mmHg 29%
    19:00 +26°C° 0,2 mm 6 m/s 665 mmHg 33%
    20:00 +25°C° 0,2 mm 5 m/s 665 mmHg 37%
    21:00 +23°C° 0,2 mm 5 m/s 665 mmHg 41%
    22:00 +22°C° 0,1 mm 4 m/s 665 mmHg 43%
    23:00 +22°C° 0,1 mm 4 m/s 665 mmHg 44%

    30 Mai, Marţi

    Timp Temperatura Precipitaţii Vânt Presiune Umiditate
    00:00 +21°C° 0,1 mm 4 m/s 665 mmHg 46%
    01:00 +20°C° 0,1 mm 4 m/s 665 mmHg 48%
    02:00 +20°C° 0,1 mm 4 m/s 664 mmHg 51%
    03:00 +19°C° 0,1 mm 4 m/s 664 mmHg 53%
    04:00 +19°C° 0,3 mm 3 m/s 664 mmHg 55%
    05:00 +18°C° 0,3 mm 3 m/s 664 mmHg 58%
    06:00 +18°C° 0,3 mm 3 m/s 665 mmHg 61%
    07:00 +19°C° 0,3 mm 3 m/s 665 mmHg 56%
    08:00 +19°C° 0,3 mm 4 m/s 665 mmHg 52%
    09:00 +20°C° 0,3 mm 4 m/s 666 mmHg 48%
    10:00 +20°C° 0,1 mm 4 m/s 666 mmHg 45%
    11:00 +21°C° 0,1 mm 4 m/s 666 mmHg 42%
    12:00 +22°C° 0,1 mm 4 m/s 666 mmHg 39%
    13:00 +22°C° 0 mm 4 m/s 666 mmHg 37%
    14:00 +23°C° 0 mm 4 m/s 665 mmHg 36%
    15:00 +23°C° 0 mm 5 m/s 665 mmHg 35%
    16:00 +23°C° 0 mm 5 m/s 665 mmHg 35%
    17:00 +23°C° 0 mm 5 m/s 665 mmHg 35%
    18:00 +23°C° 0 mm 5 m/s 665 mmHg 35%
    19:00 +22°C° 0 mm 5 m/s 665 mmHg 36%
    20:00 +21°C° 0 mm 5 m/s 666 mmHg 37%
    21:00 +21°C° 0 mm 4 m/s 666 mmHg 38%
    22:00 +20°C° 0 mm 4 m/s 666 mmHg 39%
    23:00 +20°C° 0 mm 4 m/s 666 mmHg 39%
    Arată mai mult